Regional Weather Roundup
Issued by NWS

Home | Current Version | Previous Version | Graphics & Text | Print | Product List | Glossary On
Versions: 1 2 3 4 5 6 7 8 9 10 11 12 13 14 15 16 17 18 19 20 21 22 23 24 25 26 27 28 29 30 31 32 33 34 35 36 37 38 39 40 41 42 43 44 45 46 47 48 49 50
000
ASUS45 KTFX 100010
RWRMT
MONTANA REGIONAL WEATHER ROUNDUP
NATIONAL WEATHER SERVICE GREAT FALLS MT
500 PM MST FRI DEC 09 2016

NOTE: "FAIR" INDICATES FEW OR NO CLOUDS BELOW 12000 FEET WITH NO
SIGNIFICANT WEATHER AND/OR OBSTRUCTIONS TO VISIBILITY.

MTZ001>007-043-100100-
WEST OF THE DIVIDE

CITY           SKY/WX    TMP DP  RH WIND       PRES   REMARKS
KALISPELL      LGT SNOW   8   4  83 N7        30.11F FOG     WCI  -3
MISSOULA       CLOUDY    17  11  77 NW3       30.07F
BUTTE          CLOUDY    19  11  70 CALM      29.94F
MULLAN PASS    FOG       16  14  92 S6        29.83F VSB 3/4 WCI   7
ANACONDA         N/A     12   5  73 CALM      29.95F
DEER LODGE       N/A     12   5  73 CALM      30.00F
EUREKA           N/A      5   0  78 CALM      30.17F
HAMILTON         N/A     16   9  73 CALM      30.03F
LIBBY            N/A     12   7  79 CALM      30.12F
RONAN            N/A     13   7  77 MISG      30.09F
$$

MTZ008-052>055-100100-
SOUTHWEST MONTANA

CITY           SKY/WX    TMP DP  RH WIND       PRES   REMARKS
BOZEMAN        CLOUDY     8   1  73 CALM      30.05F
DILLON         LGT SNOW  12   8  84 CALM      29.97F FOG
W YELLOWSTONE  MIX PCPN  25  21  86 S8        29.98F WCI  16
ENNIS          CLOUDY    16  14  93 CALM      29.99F FOG
THREE FORKS      N/A      9 -47   6 CALM      30.04F
TWIN BRIDGES     N/A     10   1  67 NW3       29.98F
$$

MTZ009-010-012-014-046-048-049-054-100100-
EAST SLOPES AND CENTRAL MONTANA

CITY           SKY/WX    TMP DP  RH WIND       PRES   REMARKS
CUT BANK       PTCLDY    -3  -7  82 SE7       30.12F WCI -16
GREAT FALLS    CLOUDY    -2  -8  76 CALM      30.14F
MALMSTROM AFB  CLOUDY    -3  -7  84 NW3       30.17F
HELENA         CLOUDY     6  -3  66 CALM      30.10F
CHOTEAU          N/A     -4  -9  77 MISG      30.12F
CONRAD           N/A     -2  -7  79 NE2       30.14F
$$

MTZ011-013-016-021-045-047-050-051-100100-
NORTH CENTRAL MONTANA

CITY           SKY/WX    TMP DP  RH WIND       PRES   REMARKS
HAVRE          CLOUDY     5  -1  76 E14       30.28F WCI -12
LEWISTOWN      CLOUDY     2  -3  80 E15       30.09F WCI -17
N BAR RANCH    CLOUDY     3  -4  72 SE7       30.10F WCI  -9
CHINOOK          N/A      3  -2  78 E10       30.33S WCI -12
FORT BENTON      N/A      5  -2  72 N7        30.25F WCI  -7
$$

MTZ017>020-022>027-061-062-100100-
NORTHEAST MONTANA

CITY           SKY/WX    TMP DP  RH WIND       PRES   REMARKS
GLASGOW        CLOUDY    -2  -7  79 E7        30.40F WCI -15
JORDAN           N/A      4  -2  76 SE9       30.34F WCI -10
SIDNEY         CLOUDY    -7 -13  75 E6        30.50  WCI -20
WOLF POINT     CLOUDY    -4 -11  72 E7        30.48F WCI -18
PLENTYWOOD       N/A     -9 -13  84 SE6       30.46F WCI -23
POPLAR           N/A     -8 -13  77 E3        30.50F
SCOBEY           N/A     -2 -12  62 S5        30.37F
$$

MTZ028>42-056>058-100100-
SOUTHCENTRAL AND SOUTHEAST MONTANA

CITY           SKY/WX    TMP DP  RH WIND       PRES   REMARKS
BAKER          CLOUDY    -1  -6  79 E9        30.35F WCI -16
BILLINGS       CLOUDY     4   0  83 NE6       30.18F WCI  -7
LIVINGSTON     LGT SNOW   6   0  76 E8        30.07S WCI  -7
MILES CITY     CLOUDY     4  -3  73 NE9       30.35F WCI -10
BIG TIMBER     CLOUDY     5   1  85 E5        30.12F HAZE
EKALAKA          N/A      0  -9  65 E7        30.21F WCI -13
FORSYTH          N/A      3   0  85 E12       30.30F WCI -13
LAUREL           N/A      6  -4  63 N5        30.14F
$$

REGIONAL REPORTS...DAKOTAS

CITY           SKY/WX    TMP DP  RH WIND       PRES   REMARKS
WILLISTON      CLOUDY    -9 -14  78 E3        30.51F
MINOT          CLOUDY   -10 -15  78 W7        30.52S WCI -25
DICKINSON      CLOUDY    -9 -15  75 CALM      30.40F
BEACH          CLOUDY    -9 -13  84 CALM      30.42F
CROSBY           N/A    -13 -18  77 NW6       30.52F WCI -27
TIOGA            N/A    -11 -15  84 W6        30.48S WCI -25
WATFORD CITY     N/A    -11 -17  77 CALM      30.50S
BISMARCK       CLOUDY    -6 -10  83 N6        30.54S WCI -19
GRAND FORKS    CLEAR     -7 -12  79 NW7       30.56S WCI -21
FARGO          PTCLDY     1  -6  72 W8        30.56S WCI -13
BUFFALO SD       N/A     -2  -7  79 E9        30.27F WCI -18
RAPID CITY     CLOUDY     2  -4  76 NE6       30.34S WCI  -9
$$

REGIONAL REPORTS...WYOMING/IDAHO/WASHINGTON

CITY           SKY/WX    TMP DP  RH WIND       PRES   REMARKS
GILLETTE       CLOUDY     6   1  80 NE7       30.15F WCI  -6
SHERIDAN       CLOUDY    10   2  69 SE5       30.15F
BUFFALO WY     CLOUDY     6  -1  73 S8        30.09F WCI  -7
CODY           CLOUDY     8   1  73 CALM      30.04F
YELLOWSTONE LA   N/A     25  22  88 CALM      29.97F
IDAHO FALLS    LGT SNOW  23  20  88 VRB3      30.07S VSB 1
SALMON         CLOUDY    18  16  93 CALM      30.05F
BOISE          FRZ RAIN  31  29  92 E5        30.05R FOG
SPOKANE        CLOUDY    19  16  88 NE9       30.01S FOG     WCI   8
$$

REGIONAL REPORTS...ALBERTA

CITY           SKY/WX    TMP DP  RH WIND       PRES   REMARKS
EDMONTON       CLEAR     -6 -17  59 SE8       30.33F WCI -21
CALGARY        CRYSTALS  -8 -13  77 SE12      30.12F WCI -27
LETHBRIDGE     MOCLDY    -2  -6  84 E10       30.21F WCI -19
MEDICINE HAT   MOCLDY    -2  -8  78 E5        30.33F
WATERTON GATE    N/A     -6 -11  77 E3          N/A
MILK RIVER       N/A      0  -4  85 E8          N/A  WCI -15
ONEFOUR          N/A      0  -6  78 E10         N/A  WCI -17
$$

REGIONAL REPORTS...SASKATCHEWAN

CITY           SKY/WX    TMP DP  RH WIND       PRES   REMARKS
SWIFT CURRENT  CLOUDY    -6  -9  84 E8        30.33F WCI -21
REGINA         PTCLDY    -9 -15  77 W3        30.49F
SASKATOON      CRYSTALS  -9 -15  77 N3        30.52F
CYPRESS HILLS    N/A     -8 -13  77 SE7         N/A  WCI -22
VAL MARIE        N/A     -4  -8  84 SE6         N/A  WCI -16
ROCKGLEN         N/A     -4  -8  84 S6          N/A  WCI -16
$$



USA.gov is the U.S. government's official web portal to all federal, state and local government web resources and services.